Clermont County, Batavia, OH

2:45 PM EDT on October 21, 2019 (GMT -0400)
Clermont County, Batavia

Weather History for KI69 - September, 2019

Change the Weather History Date:

Thursday, September 19, 2019

  Actual Average (KLUK) Record (KLUK)
Temperature  
Mean Temperature 72 °F -  
Max Temperature 84 °F 77 °F 92 °F (1978)
Min Temperature 60 °F 57 °F 41 °F (1959)
Cooling Degree Days 7    
Growing Degree Days 22 (Base 50)    
Moisture  
Dew Point 61 °F    
Average Humidity 68    
Maximum Humidity 82    
Minimum Humidity 55    
Precipitation  
Precipitation 0.00 in - - ()
Sea Level Pressure  
Sea Level Pressure 30.12 in    
Wind  
Wind Speed 3 mph (SE)    
Max Wind Speed 9 mph    
Max Gust Speed -    
Visibility 10 miles    
Events      
Averages and records for this station are not official NWS values.
T = Trace of Precipitation, MM = Missing Value Source: NWS Daily Summary

Daily Weather History Graph

Daily Weather History Graph

Search for Another Location

Airport or City:

Astronomy

Sep. 19, 2019 Rise Set
Actual Time 7:21 AM EDT 7:39 PM EDT
Civil Twilight 6:54 AM EDT 8:05 PM EDT
Nautical Twilight 6:23 AM EDT 8:37 PM EDT
Astronomical Twilight 5:51 AM EDT 9:08 PM EDT
Moon 10:50 PM EDT (9/19) 12:21 PM EDT (9/19)
Length of Visible Light 13h 10m
Length of Day
12h 17m
Waning Gibbous, 74% of the Moon is Illuminated
Sep 19
Waning Gibbous
Sep 21
Last Quarter
Sep 28
New
Oct 5
First Quarter
Oct 13
Full

Hourly Weather History & Observations

Time (EDT) Temp. Heat Index Dew Point Humidity Pressure Visibility Wind Dir Wind Speed Gust Speed Precip Events Conditions
12:15 AM 67.3 °F - 53.2 °F 61% 30.12 in 10.0 mi East 3.5 mph - N/A   Clear
12:38 AM 66.4 °F - 53.6 °F 63% 30.12 in 10.0 mi Calm Calm - N/A   Clear
12:56 AM 65.3 °F - 54.0 °F 67% 30.12 in 10.0 mi Calm Calm - N/A   Clear
1:16 AM 65.7 °F - 53.6 °F 65% 30.12 in 10.0 mi ESE 3.5 mph - N/A   Clear
1:35 AM 64.6 °F - 53.6 °F 68% 30.11 in 10.0 mi East 3.5 mph - N/A   Clear
1:55 AM 64.0 °F - 53.4 °F 68% 30.11 in 10.0 mi Calm Calm - N/A   Clear
2:18 AM 64.0 °F - 53.4 °F 68% 30.12 in 10.0 mi Calm Calm - N/A   Clear
2:36 AM 63.5 °F - 53.2 °F 69% 30.12 in 10.0 mi Calm Calm - N/A   Clear
2:55 AM 63.3 °F - 53.4 °F 70% 30.11 in 10.0 mi Calm Calm - N/A   Clear
3:15 AM 63.7 °F - 53.1 °F 68% 30.11 in 10.0 mi Calm Calm - N/A   Clear
3:35 AM 63.5 °F - 52.9 °F 68% 30.10 in 10.0 mi East 5.8 mph - N/A   Clear
3:58 AM 63.7 °F - 52.7 °F 67% 30.11 in 10.0 mi East 4.6 mph - N/A   Clear
4:16 AM 63.5 °F - 52.7 °F 68% 30.11 in 10.0 mi ESE 4.6 mph - N/A   Clear
4:35 AM 63.5 °F - 52.2 °F 67% 30.11 in 10.0 mi East 3.5 mph - N/A   Clear
5:15 AM 62.8 °F - 52.7 °F 70% 30.10 in 10.0 mi ESE 3.5 mph - N/A   Clear
5:38 AM 63.0 °F - 52.3 °F 68% 30.11 in 10.0 mi Calm Calm - N/A   Clear
5:56 AM 62.6 °F - 52.7 °F 70% 30.11 in 10.0 mi East 3.5 mph - N/A   Scattered Clouds
6:15 AM 62.8 °F - 52.7 °F 70% 30.11 in 10.0 mi ESE 4.6 mph - N/A   Scattered Clouds
6:35 AM 61.7 °F - 53.4 °F 74% 30.11 in 10.0 mi ESE 4.6 mph - N/A   Scattered Clouds
6:55 AM 61.5 °F - 53.6 °F 75% 30.11 in 10.0 mi ESE 4.6 mph - N/A   Scattered Clouds
7:18 AM 61.7 °F - 53.8 °F 75% 30.12 in 10.0 mi ESE 3.5 mph - N/A   Scattered Clouds
7:36 AM 60.8 °F - 54.5 °F 80% 30.12 in 10.0 mi SE 3.5 mph - N/A   Scattered Clouds
7:55 AM 61.2 °F - 54.5 °F 79% 30.12 in 10.0 mi SE 3.5 mph - N/A   Scattered Clouds
8:15 AM 60.8 °F - 55.2 °F 82% 30.12 in 10.0 mi ESE 3.5 mph - N/A   Scattered Clouds
8:58 AM 64.2 °F - 57.2 °F 78% 30.14 in 10.0 mi East 3.5 mph - N/A   Clear
9:16 AM 65.3 °F - 58.3 °F 78% 30.14 in 10.0 mi ESE 4.6 mph - N/A   Clear
9:35 AM 66.2 °F - 59.0 °F 78% 30.14 in 10.0 mi SE 4.6 mph - N/A   Clear
9:55 AM 67.8 °F - 60.1 °F 76% 30.15 in 10.0 mi ESE 3.5 mph - N/A   Clear
10:19 AM 71.6 °F - 62.1 °F 72% 30.15 in 10.0 mi SE 4.6 mph - N/A   Clear
10:38 AM 73.2 °F - 62.8 °F 70% 30.16 in 10.0 mi SSE 4.6 mph - N/A   Clear
10:56 AM 73.9 °F - 63.5 °F 70% 30.16 in 10.0 mi South 3.5 mph - N/A   Clear
11:15 AM 75.0 °F - 64.4 °F 69% 30.16 in 10.0 mi SSW 3.5 mph - N/A   Clear
11:35 AM 76.8 °F - 65.5 °F 68% 30.16 in 10.0 mi SSW 6.9 mph - N/A   Clear
11:59 AM 77.5 °F - 65.5 °F 66% 30.16 in 10.0 mi South 6.9 mph - N/A   Clear
12:17 PM 77.0 °F - 65.3 °F 67% 30.16 in 10.0 mi SSE 6.9 mph - N/A   Clear
12:36 PM 78.4 °F - 65.5 °F 64% 30.16 in 10.0 mi WSW 4.6 mph - N/A   Scattered Clouds
12:55 PM 78.4 °F - 65.7 °F 65% 30.15 in 10.0 mi SSE 6.9 mph - N/A   Scattered Clouds
1:15 PM 78.8 °F - 66.2 °F 65% 30.14 in 10.0 mi Calm Calm - N/A   Scattered Clouds
1:39 PM 81.0 °F 83.2 °F 66.6 °F 61% 30.14 in 10.0 mi SE 4.6 mph - N/A   Scattered Clouds
1:58 PM 80.2 °F 82.5 °F 66.6 °F 63% 30.13 in 10.0 mi South 3.5 mph - N/A   Scattered Clouds
2:16 PM 81.9 °F 84.2 °F 66.7 °F 60% 30.13 in 10.0 mi SW 4.6 mph - N/A   Scattered Clouds
2:35 PM 81.9 °F 84.4 °F 67.3 °F 61% 30.12 in 10.0 mi South 8.1 mph - N/A   Scattered Clouds
2:55 PM 82.4 °F 85.2 °F 67.6 °F 61% 30.12 in 10.0 mi East 4.6 mph - N/A   Scattered Clouds
3:19 PM 83.5 °F 86.2 °F 67.5 °F 58% 30.12 in 10.0 mi ESE 5.8 mph - N/A   Scattered Clouds
3:37 PM 83.8 °F 86.7 °F 67.5 °F 58% 30.11 in 10.0 mi Calm Calm - N/A   Scattered Clouds
3:56 PM 84.7 °F 87.6 °F 67.3 °F 56% 30.11 in 10.0 mi SE 4.6 mph - N/A   Scattered Clouds
4:15 PM 84.9 °F 87.6 °F 67.3 °F 55% 30.10 in 10.0 mi SSE 5.8 mph - N/A   Scattered Clouds
4:35 PM 83.1 °F 85.4 °F 66.2 °F 57% 30.09 in 10.0 mi SSE 5.8 mph - N/A   Scattered Clouds
4:59 PM 83.5 °F 86.0 °F 66.9 °F 57% 30.09 in 10.0 mi East 5.8 mph - N/A   Scattered Clouds
5:17 PM 84.6 °F 87.4 °F 67.5 °F 56% 30.09 in 10.0 mi ESE 4.6 mph - N/A   Scattered Clouds
5:36 PM 83.7 °F 86.2 °F 66.7 °F 57% 30.09 in 10.0 mi East 5.8 mph - N/A   Clear
5:55 PM 83.8 °F 86.7 °F 67.5 °F 58% 30.09 in 10.0 mi SE 4.6 mph - N/A   Clear
6:15 PM 81.7 °F 84.2 °F 66.9 °F 61% 30.09 in 10.0 mi SE 4.6 mph - N/A   Scattered Clouds
6:39 PM 80.6 °F 82.9 °F 67.1 °F 63% 30.09 in 10.0 mi ESE 9.2 mph - N/A   Mostly Cloudy
6:57 PM 79.7 °F - 67.1 °F 65% 30.09 in 10.0 mi ESE 6.9 mph - N/A   Scattered Clouds
7:16 PM 78.8 °F - 67.1 °F 67% 30.09 in 10.0 mi ESE 5.8 mph - N/A   Scattered Clouds
7:35 PM 77.5 °F - 67.1 °F 70% 30.10 in 10.0 mi ESE 6.9 mph - N/A   Scattered Clouds
7:55 PM 76.8 °F - 67.1 °F 72% 30.10 in 10.0 mi ESE 4.6 mph - N/A   Scattered Clouds
8:19 PM 75.9 °F - 67.1 °F 74% 30.10 in 10.0 mi SE 5.8 mph - N/A   Mostly Cloudy
8:37 PM 75.7 °F - 66.9 °F 74% 30.11 in 10.0 mi SE 4.6 mph - N/A   Mostly Cloudy
8:55 PM 75.4 °F - 66.7 °F 74% 30.12 in 10.0 mi ESE 5.8 mph - N/A   Scattered Clouds
9:15 PM 74.8 °F - 66.6 °F 75% 30.12 in 10.0 mi SE 3.5 mph - N/A   Clear
9:35 PM 74.3 °F - 66.4 °F 76% 30.12 in 10.0 mi SE 3.5 mph - N/A   Scattered Clouds
9:59 PM 73.9 °F - 66.4 °F 77% 30.12 in 10.0 mi SE 3.5 mph - N/A   Scattered Clouds
10:17 PM 73.4 °F - 66.2 °F 78% 30.12 in 10.0 mi SSE 3.5 mph - N/A   Clear
10:35 PM 73.4 °F - 65.7 °F 77% 30.12 in 10.0 mi Calm Calm - N/A   Clear
10:55 PM 72.7 °F - 65.5 °F 78% 30.12 in 10.0 mi SSE 4.6 mph - N/A   Clear
11:39 PM 72.1 °F - 64.8 °F 78% 30.12 in 10.0 mi SE 3.5 mph - N/A   Clear
11:57 PM 71.6 °F - 64.8 °F 79% 30.12 in 10.0 mi SE 3.5 mph - N/A   Clear